Nagpur Sonegaon, India

3:25 AM IST on May 27, 2017 (GMT +0530)
Nagpur

Weather History for VANP - February, 2014

Change the Weather History Date:

Sunday, February 2, 2014

  Actual Average Record
Temperature  
Mean Temperature 68 °F -  
Max Temperature 86 °F 89 °F - ()
Min Temperature 51 °F 60 °F - ()
Cooling Degree Days 4    
Growing Degree Days 18 (Base 50)    
Moisture  
Dew Point 46 °F    
Average Humidity 43    
Maximum Humidity 76    
Minimum Humidity 15    
Precipitation  
Precipitation 0.00 in 0.03 in - ()
Sea Level Pressure  
Sea Level Pressure 29.99 in    
Wind  
Wind Speed 1 mph ()    
Max Wind Speed 6 mph    
Max Gust Speed -    
Visibility 2.4 miles    
Events      
T = Trace of Precipitation, MM = Missing Value Source: Averaged Metar Reports

Daily Weather History Graph

Daily Weather History Graph

Search for Another Location

Airport or City:

Trip Planner

Search our weather history database for the weather conditions in past years. The results will help you decide how hot, cold, wet, or windy it might be!

Date:

Astronomy

Feb. 02, 2014 Rise Set
Actual Time 6:50 AM IST 6:04 PM IST
Civil Twilight 6:27 AM IST 6:27 PM IST
Nautical Twilight 6:00 AM IST 6:54 PM IST
Astronomical Twilight 5:34 AM IST 7:20 PM IST
Moon 8:26 AM IST (2/2) 8:46 PM IST (2/2)
Length of Visible Light 12h 00m
Length of Day
11h 14m
Waxing Crescent, 8% of the Moon is Illuminated
Feb 2
Waxing Crescent
Feb 7
First Quarter
Feb 15
Full
Feb 22
Last Quarter
Mar 1
New

Hourly Weather History & Observations

Time (IST) Temp. Dew Point Humidity Pressure Visibility Wind Dir Wind Speed Gust Speed Precip Events Conditions
2:10 AM 60.8 °F 46.4 °F 59% 30.04 in 1.9 mi North 2.3 mph - N/A   Haze
2:30 AM 57 °F 48 °F 65% 30.01 in 1 mi Calm Calm - -   Haze
3:40 AM 55.4 °F 42.8 °F 63% 30.01 in 1.9 mi Calm Calm - N/A   Haze
4:40 AM 55.4 °F 41.0 °F 58% 30.01 in 1.9 mi Calm Calm - N/A   Haze
5:10 AM 53.6 °F 41.0 °F 62% 30.01 in 1.9 mi Calm Calm - N/A   Haze
5:30 AM 53 °F 47 °F 74% 30.04 in 1 mi Calm Calm - -   Haze
5:40 AM 55.4 °F 41.0 °F 58% 30.04 in 1.9 mi Calm Calm - N/A   Haze
6:10 AM 53.6 °F 41.0 °F 62% 30.04 in 1.9 mi Calm Calm - N/A   Haze
6:40 AM 55.4 °F 42.8 °F 63% 30.04 in 1.9 mi Calm Calm - N/A   Haze
7:40 AM 48.2 °F 41.0 °F 76% 30.06 in 2.2 mi Calm Calm - N/A   Haze
8:10 AM 60.8 °F 44.6 °F 55% 30.06 in 2.2 mi Calm Calm - N/A   Haze
8:30 AM 65 °F 47 °F 42% 30.06 in 1 mi Calm Calm - -   Haze
9:10 AM 68.0 °F 46.4 °F 46% 30.06 in 2.2 mi Calm Calm - N/A   Haze
9:40 AM 71.6 °F 42.8 °F 35% 30.09 in 2.2 mi NE 4.6 mph - N/A   Haze
10:10 AM 73.4 °F 42.8 °F 33% 30.09 in 3.1 mi East 5.8 mph - N/A   Haze
10:40 AM 75.2 °F 44.6 °F 34% 30.09 in 3.1 mi East 2.3 mph - N/A   Haze
11:10 AM 77.0 °F 44.6 °F 32% 30.06 in 3.1 mi ENE 3.5 mph - N/A   Haze
11:30 AM 79 °F 45 °F 20% 30.02 in 2 mi ENE 4.6 mph - -   Haze
11:40 AM 80.6 °F 46.4 °F 30% 30.06 in 3.1 mi East 5.8 mph - N/A   Haze
12:10 PM 80.6 °F 42.8 °F 26% 30.04 in 3.1 mi East 2.3 mph - N/A   Haze
12:40 PM 82.4 °F 44.6 °F 26% 30.01 in 3.1 mi ENE 2.3 mph - N/A   Haze
1:10 PM 84.2 °F 44.6 °F 25% 29.98 in 3.7 mi NNE 3.5 mph - N/A   Unknown
1:40 PM 84.2 °F 46.4 °F 27% 29.98 in 3.7 mi Calm Calm - N/A   Unknown
2:10 PM 84.2 °F 46.4 °F 27% 29.95 in 3.7 mi North 5.8 mph - N/A   Unknown
2:30 PM 85 °F 45 °F 15% 29.88 in 2 mi NNW 2.3 mph - -  
2:40 PM 86.0 °F 48.2 °F 27% 29.95 in 3.7 mi NNE 4.6 mph - N/A   Unknown
3:10 PM 84.2 °F 46.4 °F 27% 29.92 in 3.7 mi NNE 3.5 mph - N/A   Unknown
4:10 PM 86.0 °F 46.4 °F 25% 29.92 in 3.1 mi ENE 3.5 mph - N/A   Smoke
4:40 PM 84.2 °F 46.4 °F 27% 29.92 in 2.5 mi East 3.5 mph - N/A   Smoke
5:10 PM 82.4 °F 48.2 °F 30% 29.92 in 2.5 mi Calm Calm - N/A   Smoke
5:30 PM 81 °F 49 °F 22% 29.88 in 2 mi Calm Calm - -   Haze
5:40 PM 80.6 °F 48.2 °F 32% 29.92 in 2.5 mi Calm Calm - N/A   Haze
6:10 PM 75.2 °F 48.2 °F 38% 29.92 in 2.5 mi Calm Calm - N/A   Haze
6:40 PM 71.6 °F 48.2 °F 43% 29.92 in 2.5 mi Calm Calm - N/A   Haze
7:10 PM 71.6 °F 48.2 °F 43% 29.95 in 2.5 mi Calm Calm - N/A   Haze
7:40 PM 69.8 °F 46.4 °F 43% 29.95 in 2.5 mi Calm Calm - N/A   Haze
8:10 PM 68.0 °F 46.4 °F 46% 29.98 in - North - - N/A   Haze
8:30 PM 67 °F 57 °F 62% 29.96 in 1 mi Calm Calm - -   Haze
8:40 PM 66.2 °F 44.6 °F 46% 29.98 in 2.5 mi Calm Calm - N/A   Haze
10:10 PM 64.4 °F 44.6 °F 49% 29.98 in 2.5 mi Calm Calm - N/A   Haze
10:40 PM 62.6 °F 46.4 °F 55% 30.01 in 2.5 mi Calm Calm - N/A   Haze
11:10 PM 64.4 °F 44.6 °F 49% 29.98 in 2.5 mi Calm Calm - N/A   Haze
11:30 PM 62 °F 51 °F 57% 29.99 in 1 mi Calm Calm - -   Haze